Regional Weather Roundup
Issued by NWS Spokane, WA

Home | Current Version | Previous Version | Text Only | Print | Product List | Glossary On
Versions: 1 2 3 4 5 6 7 8 9 10 11 12 13 14 15 16 17 18 19 20 21 22 23 24 25 26 27 28 29 30 31 32 33 34 35 36 37 38 39 40 41 42 43 44 45 46 47 48 49 50
000
NZUS01 KOTX 281500
RWROTX
EASTERN WASHINGTON/NORTHERN IDAHO ROUNDUP
NATIONAL WEATHER SERVICE, SPOKANE WA
700 AM PST WED JAN 28 2015

Note: "fair" indicated few or no clouds below 12,000 feet with no
significant weather and/or obstructions to visibility.

...NORTHEAST WASHINGTON AND NORTHERN IDAHO PANHANDLE...

CITY           SKY/WX    TMP DP  RH WIND       PRES   REMARKS
SPOKANE INTL   FOG       32  32 100 CALM      30.30R VSB 1/2
SPOKANE DOWNTO CLOUDY    36  33  89 CALM      30.33R FOG
COEUR D ALENE  CLOUDY    36  34  93 W3        30.30R
DEER PARK      CLOUDY    33  33 100 CALM      30.32R FOG

...SOUTHEAST WASHINGTON AND SOUTHERN IDAHO PANHANDLE...

CITY           SKY/WX    TMP DP  RH WIND       PRES   REMARKS
WALLA WALLA    CLEAR     36  34  92 SE5       30.33R
PULLMAN/MOSCOW FOG       39  38  96 SE3       30.31R VSB 1
LEWISTON       PTCLDY    36  36 100 CALM      30.33R
LOWELL           N/A     35  33  92 CALM      30.38R

...COLUMBIA BASIN...

CITY           SKY/WX    TMP DP  RH WIND       PRES   REMARKS
EPHRATA        CLOUDY    33  32  96 NW7       30.35R FOG     WCI  27
MOSES LAKE     CLOUDY    33  33 100 CALM      30.36R
TRI CITIES     CLOUDY    35  35 100 NW3       30.39R FOG
HERMISTON      FOG       30  29  96 S5        30.34R VSB 1/4 WCI  25
PENDLETON      PTCLDY    40  36  86 SE5       30.31R

...EAST SLOPES CASCADES...

CITY           SKY/WX    TMP DP  RH WIND       PRES   REMARKS
THE DALLES     MOCLDY    41  39  93 E7        30.33R
YAKIMA         FOG       30  29  96 CALM      30.34R VSB 1/4
ELLENSBURG     CLEAR     38  32  79 CALM      30.30R
WENATCHEE      FOG       35  33  92 E5        30.34R VSB 1/4
OMAK           CLOUDY    35  33  92 CALM      30.35R

...SOUTHERN BRITISH COLUMBIA...

CITY           SKY/WX    TMP DP  RH WIND       PRES   REMARKS

...WESTERN MONTANA...

CITY           SKY/WX    TMP DP  RH WIND       PRES   REMARKS
MISSOULA       PTCLDY    27  25  92 CALM      30.25R

...NEIGHBORING CITIES...

CITY           SKY/WX    TMP DP  RH WIND       PRES   REMARKS
SEATTLE        MOCLDY    46  44  93 NE5       30.36R



USA.gov is the U.S. government's official web portal to all federal, state and local government web resources and services.